Location: Unspecified
(48.8582°N, 2.2947°E)
Time: 09:07:48
(UTC+02:00)

Daily predictions for brighter satellites

Satellite Brightness Start Highest point End
(mag) Time Altitude Azimuth Time Altitude Azimuth Time Altitude Azimuth
USA 267 3.3 21:31:03 10° ENE 21:37:33 63° SE 21:44:02 10° SW
Cosmos 2322 Rocket 2.6 21:32:11 10° SW 21:37:47 70° WNW 21:43:27 10° NNE
Intercosmos 25 Rocket 3.7 21:34:54 10° S 21:38:27 84° WNW 21:43:45 10° N
Cosmos 1933 3.3 21:36:09 10° S 21:40:10 75° E 21:44:11 10° NNE
Cosmos 2242 Rocket 4.3 21:39:42 10° SSW 21:44:08 60° WNW 21:48:34 10° N
Cosmos 2360 Rocket 2.3 21:38:43 10° S 21:44:15 59° ESE 21:49:51 10° NE
ATLAS 3B R/B 4.5 21:39:12 10° NW 21:44:53 25° N 21:50:21 10° ENE
Cosmos 1862 4.3 21:42:50 10° NNW 21:46:46 51° W 21:50:41 10° S
ATLAS 5 CENTAUR R/B 3.2 21:41:09 10° NW 21:46:51 49° WSW 21:53:02 10° SSE
USA 186 3.0 21:46:00 10° S 21:48:48 40° W 21:51:46 10° NNW
Cosmos 2221 Rocket 4.4 21:46:40 10° SSE 21:50:35 32° E 21:54:33 10° NNE
COSMOS 2428 3.4 21:47:56 10° SSE 21:52:57 34° ESE 21:58:01 10° NE
SAR-Lupe-1 4.2 21:50:04 10° SSE 21:53:39 80° WSW 21:57:16 10° NNW
Cosmos 1844 4.1 21:51:23 10° NNW 21:56:56 51° NE 22:02:10 11° SE
Cosmos 1782 4.2 21:56:03 10° SE 21:59:06 21° E 22:02:09 10° NE
ARGOS 4.0 21:55:16 10° SE 22:00:05 35° ENE 22:04:56 10° N
Terra 3.9 21:58:15 10° E 22:00:29 13° NE 22:02:42 10° NNE
Atlas Centaur 2 4.3 21:56:57 10° SSW 22:00:41 16° S 22:04:46 10° SE
H-2A R/B 4.2 21:59:54 10° E 22:01:59 13° NE 22:04:05 10° NNE
Cosmos 1777 Rocket 4.0 21:57:58 10° NNW 22:03:17 78° ENE 22:08:32 10° SSE
Cosmos 1908 Rocket 3.7 21:59:42 10° NNW 22:04:04 79° W 22:08:24 10° S
Cosmos 2322 3.7 22:00:39 10° SSW 22:06:21 74° ESE 22:12:03 10° NNE
Resurs 01 Rocket 3.9 22:05:22 10° SSW 22:08:58 24° W 22:12:36 10° NW
CZ-4C R/B 3.2 22:02:43 10° NW 22:09:25 56° NE 22:16:21 13° ESE
SL-16 R/B 3.6 22:04:35 10° SW 22:10:00 44° NW 22:15:27 10° NNE
Meteor 1-25 Rocket 4.2 22:07:33 10° N 22:13:09 71° ENE 22:18:41 10° SSE
USA 234 3.3 22:08:17 12° SE 22:14:28 79° SW 22:21:03 10° WNW
Helios 1A 4.3 22:11:28 10° S 22:15:28 40° W 22:19:31 10° NNW
SPOT 1/Viking Rocket 4.4 22:12:28 14° SE 22:16:28 35° ENE 22:21:10 10° N
Meteor 1-20 Rocket 4.2 22:12:47 10° N 22:18:23 70° ENE 22:23:53 11° SSE
Cosmos 1939 Rocket 3.6 22:14:43 10° S 22:18:38 52° W 22:22:32 10° NNW
Meteor 1-14 Rocket 4.4 22:12:57 10° NNW 22:18:40 80° W 22:24:28 10° S
Sich 1 Rocket 4.3 22:14:25 10° NNW 22:18:50 57° W 22:23:16 10° S
Cosmos 1782 Rocket 3.5 22:14:32 10° N 22:18:57 89° ENE 22:23:22 10° S
Cosmos 1844 Rocket 2.7 22:14:12 10° NNW 22:19:49 88° ENE 22:24:45 14° SSE
MetOp-A 4.2 22:18:15 12° SSE 22:23:12 68° ENE 22:28:32 10° N
Okean 1-7 3.1 22:19:27 10° S 22:23:47 62° E 22:28:10 10° NNE
Cosmos 2237 Rocket 3.4 22:21:48 15° SE 22:24:36 21° E 22:28:47 10° NE
Meteor 2-10 Rocket 4.1 22:19:35 10° SSW 22:25:24 72° WNW 22:31:08 10° N
Cosmos 2084 3.2 22:21:56 10° NW 22:25:45 74° NE 22:28:25 20° SE
Cosmos 2278 Rocket 2.7 22:20:20 10° NNW 22:25:50 48° NE 22:29:59 17° ESE
BREEZE-M DEB (TANK) 4.0 22:24:15 10° W 22:27:56 68° S 22:39:49 10° ESE
Cosmos 2333 4.3 22:23:09 10° S 22:28:42 55° ESE 22:34:21 10° NE
Cosmos 1606 3.4 22:28:10 19° SSE 22:30:20 35° E 22:33:48 10° NNE
YAOGAN 6 3.1 22:28:22 10° S 22:31:56 58° W 22:35:29 10° NNW
Cosmos 2333 Rocket 2.9 22:26:55 10° SSE 22:31:59 33° ESE 22:37:04 10° NE
SL-08 RB Rocket 4.0 22:32:38 19° SE 22:35:40 50° ENE 22:40:04 10° N
Abrixas rocket 2.3 22:32:29 10° W 22:35:44 59° SSW 22:37:17 27° SE
Okean 2 Rocket 3.2 22:34:41 10° NNW 22:39:14 80° W 22:43:08 14° S
USA 245 3.9 22:35:30 17° SSE 22:39:33 67° ENE 22:43:52 10° N
Cosmos 2219 Rocket 2.3 22:40:46 10° S 22:46:08 50° ESE 22:51:34 10° NE
Helios 1B rocket 4.2 22:42:33 10° N 22:46:17 34° WNW 22:49:59 10° SW
Cosmos 1745 Rocket 4.4 22:45:18 10° N 22:51:26 48° ENE 22:55:13 23° SE
NOSS 0 Rocket 4.3 22:48:56 11° S 22:54:29 43° ESE 23:00:14 10° NE
NOSS 3-1 (C) 3.4 22:52:57 10° SSW 22:58:40 59° ESE 23:05:07 10° NE
IGS 5A 4.5 22:59:11 25° ESE 23:00:38 32° ENE 23:04:21 10° N
Cosmos 1536 3.7 22:58:10 10° N 23:01:54 34° ENE 23:03:00 29° ESE
SeaSat 1 2.4 22:59:25 27° SE 23:02:12 79° ENE 23:07:10 10° NNW
SPOT 5 2.9 23:00:10 21° S 23:03:20 72° WSW 23:07:52 10° NNW
Cosmos 1633 2.5 23:00:18 10° N 23:04:00 82° E 23:05:26 36° SSE
Cosmos 2298 Rocket 4.4 23:00:38 10° NNW 23:05:53 54° ENE 23:08:29 28° SE
USA 229 DEB 4.0 22:59:38 10° SW 23:06:28 69° NW 23:13:29 10° NE
USA 229 4.0 22:59:45 10° SW 23:06:35 70° NW 23:13:36 10° NE
ERS-1 Rocket 4.1 23:02:07 10° SSW 23:06:49 39° W 23:11:31 10° NNW
H-2A R/B 1.9 23:04:49 27° SSE 23:07:30 75° ENE 23:12:26 10° NNW
CARTOSAT-1 4.1 23:08:10 31° ESE 23:09:41 43° ENE 23:13:48 10° N
USA 129 4.1 23:11:18 10° NNE 23:12:00 18° NNE 23:12:00 18° NNE
Cosmos 1937 Rocket 3.8 23:08:47 10° NNW 23:13:57 53° ENE 23:16:14 31° ESE
Cosmos 2151 Rocket 3.8 23:09:35 10° NNW 23:14:01 71° W 23:16:28 26° S
Cosmos 1570 Rocket 3.9 23:11:00 10° SSW 23:16:15 83° ESE 23:21:35 10° NNE
NOSS 3-1 (A) 3.4 23:10:39 10° SSW 23:16:22 59° ESE 23:22:50 10° NE
ATLAS 2AS CENTAUR R/B 4.1 23:17:28 22° ESE 23:18:17 22° ESE 23:24:05 10° ENE
Cosmos 2369 Rocket 4.4 23:15:09 10° N 23:18:41 17° NE 23:22:14 10° ENE
Cosmos 990 Rocket 4.4 23:14:46 10° NNW 23:19:47 50° ENE 23:21:51 32° ESE
USA 267 3.8 23:14:09 10° NE 23:20:35 60° NNW 23:27:00 10° W
Landsat 7 3.7 23:20:18 35° SSE 23:22:20 81° ENE 23:27:08 10° NNW
Okean 1 Rocket 3.2 23:19:28 10° N 23:23:54 59° ENE 23:25:12 41° SE
DMSP B5D2-2 4.3 23:18:48 10° NNE 23:23:57 50° E 23:25:52 34° SSE
Iridium 4 Rocket 3.1 23:19:51 10° N 23:23:58 57° E 23:24:59 43° SE
Cosmos 2297 3.9 23:18:33 10° NNW 23:24:14 61° ENE 23:26:47 32° SE
ASTEX 1 3.4 23:22:39 34° SSE 23:24:47 72° E 23:29:46 10° N
Cosmos 1674 Rocket 3.4 23:24:30 40° SSE 23:25:55 68° E 23:30:13 10° NNE
Cosmos 858 Rocket 4.4 23:21:10 10° NNW 23:26:25 77° ENE 23:28:30 37° SE
Cosmos 2360 Rocket 4.2 23:23:42 10° WSW 23:28:38 30° NW 23:33:37 10° NNE
Aureole 2 Rocket 3.0 23:29:44 35° NE 23:29:44 35° NE 23:31:32 10° NNE
Cosmos 2208 Rocket 4.0 23:23:57 10° SSW 23:29:17 86° WNW 23:34:37 10° NNE
Meteor 1-27 Rocket 3.6 23:26:03 25° S 23:29:28 79° E 23:35:03 10° NNE
SL-08 R/B 4.5 23:24:02 10° N 23:30:12 81° W 23:33:41 27° S
CRYOSAT 2 4.4 23:28:39 39° SE 23:30:18 62° E 23:35:08 10° N
Cosmos 1602 4.1 23:30:08 10° NNW 23:33:55 57° W 23:35:08 38° SSW
Cosmos 1782 4.2 23:31:37 11° SW 23:35:14 36° WNW 23:38:58 10° N
Cosmos 1553 Rocket 3.9 23:32:16 23° S 23:36:28 89° E 23:42:41 10° N
COSMOS 2428 3.7 23:31:35 10° SW 23:37:04 47° NW 23:42:36 10° NNE
H-2A R/B 2.0 23:36:04 47° SSE 23:37:18 89° WSW 23:41:45 10° NNW
ATLAS 3B R/B 3.3 23:30:37 10° NW 23:37:19 48° NE 23:41:31 21° E
Terra 1.7 23:35:53 43° SSE 23:37:28 81° ENE 23:42:15 10° NNW
Cosmos 2150 Rocket 4.0 23:33:57 10° NNW 23:39:27 86° ENE 23:41:28 41° SSE
ARGOS 4.2 23:36:44 18° SSW 23:40:16 40° W 23:45:21 10° NNW
Cosmos 1980 3.6 23:37:06 17° SSW 23:41:28 83° ESE 23:47:10 10° NNE
Cosmos 1763 Rocket 4.2 23:41:18 34° ESE 23:41:33 34° ESE 23:46:16 10° NE
Cosmos 1898 Rocket 3.6 23:36:35 10° NNW 23:41:46 71° WSW 23:43:40 39° S
PSLV R/B 3.7 23:45:10 49° N 23:45:10 49° N 23:47:21 10° N
Cosmos 1346 Rocket 3.2 23:45:06 33° SW 23:46:40 59° WNW 23:50:38 10° N
SL-16 R/B 2.6 23:47:53 39° SE 23:48:35 41° ESE 23:53:54 10° NE
Cosmos 1812 4.1 23:49:52 26° ENE 23:49:52 26° ENE 23:52:28 10° NNE
Cosmos 2315 Rocket 4.4 23:47:30 36° SE 23:49:14 44° E 23:55:06 10° NNE
Cosmos 1975 Rocket 3.6 23:51:28 41° E 23:51:33 41° E 23:55:46 10° NNE
Meteor 1-11 Rocket 4.3 23:48:23 10° NNW 23:53:44 50° W 23:56:29 27° SSW
DELTA 2 DEB (DPAF) 4.3 23:53:29 52° ESE 23:54:15 61° ENE 23:58:42 10° N
Cosmos 1300 Rocket 4.2 23:50:52 10° NNW 23:55:06 49° W 23:56:24 36° SW
